Year,Month,Day,Hour,Minute,Value (Times are PST for temperature in C)
2014,04,27,00,00,8.00
2014,04,27,00,01,7.80
2014,04,27,00,02,7.60
2014,04,27,00,03,7.50
2014,04,27,00,04,7.30
2014,04,27,00,05,7.30
2014,04,27,00,06,7.20
2014,04,27,00,07,7.20
2014,04,27,00,08,7.10
2014,04,27,00,09,7.10
2014,04,27,00,10,7.10
2014,04,27,00,11,7.10
2014,04,27,00,12,7.10
2014,04,27,00,13,7.10
2014,04,27,00,14,7.10
2014,04,27,00,15,7.00
2014,04,27,00,16,7.00
2014,04,27,00,17,7.00
2014,04,27,00,18,7.00
2014,04,27,00,19,7.00
2014,04,27,00,20,7.00
2014,04,27,00,21,7.00
2014,04,27,00,22,7.00
2014,04,27,00,23,7.00
2014,04,27,00,24,7.00
2014,04,27,00,25,7.10
2014,04,27,00,26,7.10
2014,04,27,00,27,7.10
2014,04,27,00,28,7.10
2014,04,27,00,29,7.20
2014,04,27,00,30,7.30
2014,04,27,00,31,7.30
2014,04,27,00,32,7.40
2014,04,27,00,33,7.50
2014,04,27,00,34,7.60
2014,04,27,00,35,7.60
2014,04,27,00,36,7.70
2014,04,27,00,37,7.70
2014,04,27,00,38,7.70
2014,04,27,00,39,7.70
2014,04,27,00,40,7.80
2014,04,27,00,41,7.80
2014,04,27,00,42,7.80
2014,04,27,00,43,7.80
2014,04,27,00,44,7.80
2014,04,27,00,45,7.80
2014,04,27,00,46,7.80
2014,04,27,00,47,7.80
2014,04,27,00,48,7.80
2014,04,27,00,49,7.80
2014,04,27,00,50,7.80
2014,04,27,00,51,7.80
2014,04,27,00,52,7.80
2014,04,27,00,53,7.90
2014,04,27,00,54,7.90
2014,04,27,00,55,7.90
2014,04,27,00,56,7.90
2014,04,27,00,57,7.90
2014,04,27,00,58,7.90
2014,04,27,00,59,7.90
2014,04,27,01,00,7.90
2014,04,27,01,01,7.90
2014,04,27,01,02,7.90
2014,04,27,01,03,7.90
2014,04,27,01,04,8.00
2014,04,27,01,05,8.00
2014,04,27,01,06,8.00
2014,04,27,01,07,8.00
2014,04,27,01,08,8.10
2014,04,27,01,09,8.10
2014,04,27,01,10,8.10
2014,04,27,01,11,8.10
2014,04,27,01,12,8.10
2014,04,27,01,13,8.10
2014,04,27,01,14,8.00
2014,04,27,01,15,8.10
2014,04,27,01,16,8.10
2014,04,27,01,17,8.10
2014,04,27,01,18,8.10
2014,04,27,01,19,8.10
2014,04,27,01,20,8.10
2014,04,27,01,21,8.10
2014,04,27,01,22,8.10
2014,04,27,01,23,8.20
2014,04,27,01,24,8.20
2014,04,27,01,25,8.20
2014,04,27,01,26,8.20
2014,04,27,01,27,8.20
2014,04,27,01,28,8.20
2014,04,27,01,29,8.20
2014,04,27,01,30,8.20
2014,04,27,01,31,8.20
2014,04,27,01,32,8.20
2014,04,27,01,33,8.20
2014,04,27,01,34,8.20
2014,04,27,01,35,8.20
2014,04,27,01,36,8.20
2014,04,27,01,37,8.20
2014,04,27,01,38,8.20
2014,04,27,01,39,8.20
2014,04,27,01,40,8.10
2014,04,27,01,41,8.00
2014,04,27,01,42,8.00
2014,04,27,01,43,7.90
2014,04,27,01,44,7.80
2014,04,27,01,45,7.80
2014,04,27,01,46,7.80
2014,04,27,01,47,7.80
2014,04,27,01,48,7.80
2014,04,27,01,49,7.80
2014,04,27,01,50,7.80
2014,04,27,01,51,7.80
2014,04,27,01,52,7.80
2014,04,27,01,53,7.80
2014,04,27,01,54,7.80
2014,04,27,01,55,7.90
2014,04,27,01,56,7.80
2014,04,27,01,57,7.80
2014,04,27,01,58,7.80
2014,04,27,01,59,7.80
2014,04,27,02,00,7.80
2014,04,27,02,01,7.80
2014,04,27,02,02,7.80
2014,04,27,02,03,7.90
2014,04,27,02,04,7.90
2014,04,27,02,05,7.80
2014,04,27,02,06,7.80
2014,04,27,02,07,7.90
2014,04,27,02,08,7.90
2014,04,27,02,09,7.90
2014,04,27,02,10,8.00
2014,04,27,02,11,8.00
2014,04,27,02,12,7.90
2014,04,27,02,13,7.80
2014,04,27,02,14,7.80
2014,04,27,02,15,7.70
2014,04,27,02,16,7.60
2014,04,27,02,17,7.50
2014,04,27,02,18,7.40
2014,04,27,02,19,7.40
2014,04,27,02,20,7.30
2014,04,27,02,21,7.30
2014,04,27,02,22,7.30
2014,04,27,02,23,7.30
2014,04,27,02,24,7.30
2014,04,27,02,25,7.30
2014,04,27,02,26,7.30
2014,04,27,02,27,7.30
2014,04,27,02,28,7.30
2014,04,27,02,29,7.30
2014,04,27,02,30,7.30
2014,04,27,02,31,7.20
2014,04,27,02,32,7.20
2014,04,27,02,33,7.20
2014,04,27,02,34,7.20
2014,04,27,02,35,7.20
2014,04,27,02,36,7.10
2014,04,27,02,37,7.10
2014,04,27,02,38,7.10
2014,04,27,02,39,7.10
2014,04,27,02,40,7.20
2014,04,27,02,41,7.10
2014,04,27,02,42,7.10
2014,04,27,02,43,7.10
2014,04,27,02,44,7.10
2014,04,27,02,45,7.20
2014,04,27,02,46,7.20
2014,04,27,02,47,7.20
2014,04,27,02,48,7.20
2014,04,27,02,49,7.20
2014,04,27,02,50,7.30
2014,04,27,02,51,7.30
2014,04,27,02,52,7.30
2014,04,27,02,53,7.30
2014,04,27,02,54,7.30
2014,04,27,02,55,7.30
2014,04,27,02,56,7.40
2014,04,27,02,57,7.40
2014,04,27,02,58,7.40
2014,04,27,02,59,7.50
2014,04,27,03,00,7.50
2014,04,27,03,01,7.60
2014,04,27,03,02,7.60
2014,04,27,03,03,7.60
2014,04,27,03,04,7.60
2014,04,27,03,05,7.60
2014,04,27,03,06,7.60
2014,04,27,03,07,7.60
2014,04,27,03,08,7.60
2014,04,27,03,09,7.60
2014,04,27,03,10,7.60
2014,04,27,03,11,7.60
2014,04,27,03,12,7.70
2014,04,27,03,13,7.70
2014,04,27,03,14,7.70
2014,04,27,03,15,7.70
2014,04,27,03,16,7.70
2014,04,27,03,17,7.70
2014,04,27,03,18,7.70
2014,04,27,03,19,7.80
2014,04,27,03,20,7.80
2014,04,27,03,21,7.80
2014,04,27,03,22,7.80
2014,04,27,03,23,7.80
2014,04,27,03,24,7.80
2014,04,27,03,25,7.80
2014,04,27,03,26,7.80
2014,04,27,03,27,7.80
2014,04,27,03,28,7.80
2014,04,27,03,29,7.80
2014,04,27,03,30,7.80
2014,04,27,03,31,7.80
2014,04,27,03,32,7.80
2014,04,27,03,33,7.80
2014,04,27,03,34,7.80
2014,04,27,03,35,7.80
2014,04,27,03,36,7.90
2014,04,27,03,37,7.90
2014,04,27,03,38,7.90
2014,04,27,03,39,7.90
2014,04,27,03,40,7.90
2014,04,27,03,41,7.90
2014,04,27,03,42,7.90
2014,04,27,03,43,7.90
2014,04,27,03,44,7.90
2014,04,27,03,45,7.90
2014,04,27,03,46,7.90
2014,04,27,03,47,7.90
2014,04,27,03,48,7.90
2014,04,27,03,49,7.80
2014,04,27,03,50,7.80
2014,04,27,03,51,7.80
2014,04,27,03,52,7.90
2014,04,27,03,53,7.90
2014,04,27,03,54,7.90
2014,04,27,03,55,7.90
2014,04,27,03,56,7.90
2014,04,27,03,57,7.90
2014,04,27,03,58,7.90
2014,04,27,03,59,7.90
2014,04,27,04,00,7.90
2014,04,27,04,01,7.90
2014,04,27,04,02,7.90
2014,04,27,04,03,7.90
2014,04,27,04,04,7.90
2014,04,27,04,05,7.90
2014,04,27,04,06,7.90
2014,04,27,04,07,7.90
2014,04,27,04,08,7.90
2014,04,27,04,09,7.80
2014,04,27,04,10,7.80
2014,04,27,04,11,7.80
2014,04,27,04,12,7.80
2014,04,27,04,13,7.80
2014,04,27,04,14,7.80
2014,04,27,04,15,7.80
2014,04,27,04,16,7.80
2014,04,27,04,17,7.80
2014,04,27,04,18,7.80
2014,04,27,04,19,7.80
2014,04,27,04,20,7.80
2014,04,27,04,21,7.70
2014,04,27,04,22,7.70
2014,04,27,04,23,7.70
2014,04,27,04,24,7.60
2014,04,27,04,25,7.60
2014,04,27,04,26,7.50
2014,04,27,04,27,7.50
2014,04,27,04,28,7.40
2014,04,27,04,29,7.40
2014,04,27,04,30,7.40
2014,04,27,04,31,7.40
2014,04,27,04,32,7.30
2014,04,27,04,33,7.30
2014,04,27,04,34,7.30
2014,04,27,04,35,7.20
2014,04,27,04,36,7.20
2014,04,27,04,37,7.20
2014,04,27,04,38,7.20
2014,04,27,04,39,7.10
2014,04,27,04,40,7.10
2014,04,27,04,41,7.10
2014,04,27,04,42,7.10
2014,04,27,04,43,7.00
2014,04,27,04,44,7.00
2014,04,27,04,45,7.00
2014,04,27,04,46,7.00
2014,04,27,04,47,7.00
2014,04,27,04,48,7.00
2014,04,27,04,49,7.10
2014,04,27,04,50,7.10
2014,04,27,04,51,7.20
2014,04,27,04,52,7.20
2014,04,27,04,53,7.30
2014,04,27,04,54,7.30
2014,04,27,04,55,7.40
2014,04,27,04,56,7.40
2014,04,27,04,57,7.40
2014,04,27,04,58,7.50
2014,04,27,04,59,7.60
2014,04,27,05,00,7.70
2014,04,27,05,01,7.70
2014,04,27,05,02,7.70
2014,04,27,05,03,7.70
2014,04,27,05,04,7.50
2014,04,27,05,05,7.30
2014,04,27,05,06,7.10
2014,04,27,05,07,6.90
2014,04,27,05,08,6.70
2014,04,27,05,09,6.60
2014,04,27,05,10,6.40
2014,04,27,05,11,6.30
2014,04,27,05,12,6.30
2014,04,27,05,13,6.20
2014,04,27,05,14,6.10
2014,04,27,05,15,6.10
2014,04,27,05,16,6.10
2014,04,27,05,17,6.00
2014,04,27,05,18,6.00
2014,04,27,05,19,5.90
2014,04,27,05,20,5.90
2014,04,27,05,21,5.90
2014,04,27,05,22,5.90
2014,04,27,05,23,5.90
2014,04,27,05,24,5.90
2014,04,27,05,25,5.90
2014,04,27,05,26,5.80
2014,04,27,05,27,5.80
2014,04,27,05,28,5.80
2014,04,27,05,29,5.80
2014,04,27,05,30,5.80
2014,04,27,05,31,5.80
2014,04,27,05,32,5.80
2014,04,27,05,33,5.80
2014,04,27,05,34,5.80
2014,04,27,05,35,5.80
2014,04,27,05,36,5.80
2014,04,27,05,37,5.80
2014,04,27,05,38,5.80
2014,04,27,05,39,5.90
2014,04,27,05,40,6.00
2014,04,27,05,41,6.10
2014,04,27,05,42,6.20
2014,04,27,05,43,6.20
2014,04,27,05,44,6.30
2014,04,27,05,45,6.30
2014,04,27,05,46,6.30
2014,04,27,05,47,6.30
2014,04,27,05,48,6.30
2014,04,27,05,49,6.40
2014,04,27,05,50,6.40
2014,04,27,05,51,6.40
2014,04,27,05,52,6.40
2014,04,27,05,53,6.40
2014,04,27,05,54,6.40
2014,04,27,05,55,6.40
2014,04,27,05,56,6.40
2014,04,27,05,57,6.40
2014,04,27,05,58,6.40
2014,04,27,05,59,6.40
2014,04,27,06,00,6.40
2014,04,27,06,01,6.40
2014,04,27,06,02,6.40
2014,04,27,06,03,6.40
2014,04,27,06,04,6.30
2014,04,27,06,05,6.30
2014,04,27,06,06,6.30
2014,04,27,06,07,6.30
2014,04,27,06,08,6.30
2014,04,27,06,09,6.30
2014,04,27,06,10,6.30
2014,04,27,06,11,6.30
2014,04,27,06,12,6.30
2014,04,27,06,13,6.20
2014,04,27,06,14,6.20
2014,04,27,06,15,6.20
2014,04,27,06,16,6.20
2014,04,27,06,17,6.20
2014,04,27,06,18,6.10
2014,04,27,06,19,6.10
2014,04,27,06,20,6.10
2014,04,27,06,21,6.10
2014,04,27,06,22,6.10
2014,04,27,06,23,6.00
2014,04,27,06,24,6.00
2014,04,27,06,25,6.00
2014,04,27,06,26,6.00
2014,04,27,06,27,5.90
2014,04,27,06,28,5.90
2014,04,27,06,29,5.90
2014,04,27,06,30,5.80
2014,04,27,06,31,5.80
2014,04,27,06,32,5.70
2014,04,27,06,33,5.70
2014,04,27,06,34,5.70
2014,04,27,06,35,5.70
2014,04,27,06,36,5.60
2014,04,27,06,37,5.60
2014,04,27,06,38,5.60
2014,04,27,06,39,5.60
2014,04,27,06,40,5.60
2014,04,27,06,41,5.60
2014,04,27,06,42,5.60
2014,04,27,06,43,5.60
2014,04,27,06,44,5.60
2014,04,27,06,45,5.60
2014,04,27,06,46,5.60
2014,04,27,06,47,5.60
2014,04,27,06,48,5.60
2014,04,27,06,49,5.60
2014,04,27,06,50,5.60
2014,04,27,06,51,5.60
2014,04,27,06,52,5.60
2014,04,27,06,53,5.50
2014,04,27,06,54,5.50
2014,04,27,06,55,5.50
2014,04,27,06,56,5.50
2014,04,27,06,57,5.50
2014,04,27,06,58,5.50
2014,04,27,06,59,5.50
2014,04,27,07,00,5.50
2014,04,27,07,01,5.50
2014,04,27,07,02,5.50
2014,04,27,07,03,5.50
2014,04,27,07,04,5.50
2014,04,27,07,05,5.50
2014,04,27,07,06,5.50
2014,04,27,07,07,5.50
2014,04,27,07,08,5.60
2014,04,27,07,09,5.60
2014,04,27,07,10,5.70
2014,04,27,07,11,5.70
2014,04,27,07,12,5.80
2014,04,27,07,13,5.90
2014,04,27,07,14,6.00
2014,04,27,07,15,6.10
2014,04,27,07,16,6.20
2014,04,27,07,17,6.30
2014,04,27,07,18,6.30
2014,04,27,07,19,6.40
2014,04,27,07,20,6.50
2014,04,27,07,21,6.50
2014,04,27,07,22,6.60
2014,04,27,07,23,6.70
2014,04,27,07,24,6.80
2014,04,27,07,25,6.90
2014,04,27,07,26,7.00
2014,04,27,07,27,7.00
2014,04,27,07,28,7.10
2014,04,27,07,29,7.10
2014,04,27,07,30,7.20
2014,04,27,07,31,7.20
2014,04,27,07,32,7.20
2014,04,27,07,33,7.30
2014,04,27,07,34,7.30
2014,04,27,07,35,7.30
2014,04,27,07,36,7.30
2014,04,27,07,37,7.30
2014,04,27,07,38,7.30
2014,04,27,07,39,7.30
2014,04,27,07,40,7.20
2014,04,27,07,41,7.20
2014,04,27,07,42,7.10
2014,04,27,07,43,7.10
2014,04,27,07,44,7.00
2014,04,27,07,45,7.00
2014,04,27,07,46,6.90
2014,04,27,07,47,6.90
2014,04,27,07,48,6.90
2014,04,27,07,49,6.90
2014,04,27,07,50,6.90
2014,04,27,07,51,6.90
2014,04,27,07,52,6.90
2014,04,27,07,53,7.00
2014,04,27,07,54,7.00
2014,04,27,07,55,7.00
2014,04,27,07,56,7.00
2014,04,27,07,57,6.90
2014,04,27,07,58,6.90
2014,04,27,07,59,6.90
2014,04,27,08,00,6.90
2014,04,27,08,01,6.90
2014,04,27,08,02,6.90
2014,04,27,08,03,6.90
2014,04,27,08,04,6.90
2014,04,27,08,05,6.80
2014,04,27,08,06,6.90
2014,04,27,08,07,6.90
2014,04,27,08,08,6.90
2014,04,27,08,09,6.90
2014,04,27,08,10,6.90
2014,04,27,08,11,7.00
2014,04,27,08,12,7.00
2014,04,27,08,13,7.00
2014,04,27,08,14,7.00
2014,04,27,08,15,7.10
2014,04,27,08,16,7.10
2014,04,27,08,17,7.10
2014,04,27,08,18,7.10
2014,04,27,08,19,7.10
2014,04,27,08,20,7.20
2014,04,27,08,21,7.20
2014,04,27,08,22,7.20
2014,04,27,08,23,7.20
2014,04,27,08,24,7.20
2014,04,27,08,25,7.20
2014,04,27,08,26,7.20
2014,04,27,08,27,7.30
2014,04,27,08,28,7.30
2014,04,27,08,29,7.30
2014,04,27,08,30,7.30
2014,04,27,08,31,7.30
2014,04,27,08,32,7.30
2014,04,27,08,33,7.30
2014,04,27,08,34,7.40
2014,04,27,08,35,7.40
2014,04,27,08,36,7.40
2014,04,27,08,37,7.40
2014,04,27,08,38,7.30
2014,04,27,08,39,7.30
2014,04,27,08,40,7.30
2014,04,27,08,41,7.20
2014,04,27,08,42,7.20
2014,04,27,08,43,7.20
2014,04,27,08,44,7.20
2014,04,27,08,45,7.20
2014,04,27,08,46,7.30
2014,04,27,08,47,7.30
2014,04,27,08,48,7.30
2014,04,27,08,49,7.30
2014,04,27,08,50,7.30
2014,04,27,08,51,7.30
2014,04,27,08,52,7.40
2014,04,27,08,53,7.40
2014,04,27,08,54,7.40
2014,04,27,08,55,7.40
2014,04,27,08,56,7.40
2014,04,27,08,57,7.50
2014,04,27,08,58,7.50
2014,04,27,08,59,7.50
2014,04,27,09,00,7.50
2014,04,27,09,01,7.50
2014,04,27,09,02,7.50
2014,04,27,09,03,7.60
2014,04,27,09,04,7.60
2014,04,27,09,05,7.60
2014,04,27,09,06,7.60
2014,04,27,09,07,7.60
2014,04,27,09,08,7.60
2014,04,27,09,09,7.60
2014,04,27,09,10,7.60
2014,04,27,09,11,7.60
2014,04,27,09,12,7.60
2014,04,27,09,13,7.50
2014,04,27,09,14,7.50
2014,04,27,09,15,7.40
2014,04,27,09,16,7.30
2014,04,27,09,17,7.20
2014,04,27,09,18,7.20
2014,04,27,09,19,7.20
2014,04,27,09,20,7.10
2014,04,27,09,21,7.10
2014,04,27,09,22,7.10
2014,04,27,09,23,7.10
2014,04,27,09,24,7.10
2014,04,27,09,25,7.00
2014,04,27,09,26,7.00
2014,04,27,09,27,7.00
2014,04,27,09,28,7.00
2014,04,27,09,29,6.90
2014,04,27,09,30,6.90
2014,04,27,09,31,6.90
2014,04,27,09,32,6.90
2014,04,27,09,33,6.90
2014,04,27,09,34,6.90
2014,04,27,09,35,6.90
2014,04,27,09,36,6.90
2014,04,27,09,37,6.90
2014,04,27,09,38,6.90
2014,04,27,09,39,6.90
2014,04,27,09,40,6.90
2014,04,27,09,41,6.90
2014,04,27,09,42,6.90
2014,04,27,09,43,6.90
2014,04,27,09,44,6.90
2014,04,27,09,45,6.80
2014,04,27,09,46,6.80
2014,04,27,09,47,6.80
2014,04,27,09,48,6.70
2014,04,27,09,49,6.60
2014,04,27,09,50,6.60
2014,04,27,09,51,6.60
2014,04,27,09,52,6.60
2014,04,27,09,53,6.50
2014,04,27,09,54,6.50
2014,04,27,09,55,6.50
2014,04,27,09,56,6.50
2014,04,27,09,57,6.50
2014,04,27,09,58,6.50
2014,04,27,09,59,6.50
2014,04,27,10,00,6.50
2014,04,27,10,01,6.50
2014,04,27,10,02,6.50
2014,04,27,10,03,6.60
2014,04,27,10,04,6.70
2014,04,27,10,05,6.80
2014,04,27,10,06,6.90
2014,04,27,10,07,6.90
2014,04,27,10,08,7.00
2014,04,27,10,09,7.10
2014,04,27,10,10,7.10
2014,04,27,10,11,7.20
2014,04,27,10,12,7.20
2014,04,27,10,13,7.20
2014,04,27,10,14,7.20
2014,04,27,10,15,7.30
2014,04,27,10,16,7.30
2014,04,27,10,17,7.40
2014,04,27,10,18,7.50
2014,04,27,10,19,7.50
2014,04,27,10,20,7.60
2014,04,27,10,21,7.60
2014,04,27,10,22,7.60
2014,04,27,10,23,7.70
2014,04,27,10,24,7.70
2014,04,27,10,25,7.80
2014,04,27,10,26,7.80
2014,04,27,10,27,7.90
2014,04,27,10,28,8.00
2014,04,27,10,29,8.10
2014,04,27,10,30,8.10
2014,04,27,10,31,8.20
2014,04,27,10,32,8.20
2014,04,27,10,33,8.20
2014,04,27,10,34,8.20
2014,04,27,10,35,8.20
2014,04,27,10,36,8.10
2014,04,27,10,37,8.00
2014,04,27,10,38,8.00
2014,04,27,10,39,7.90
2014,04,27,10,40,7.80
2014,04,27,10,41,7.70
2014,04,27,10,42,7.60
2014,04,27,10,43,7.60
2014,04,27,10,44,7.50
2014,04,27,10,45,7.50
2014,04,27,10,46,7.40
2014,04,27,10,47,7.30
2014,04,27,10,48,7.20
2014,04,27,10,49,7.20
2014,04,27,10,50,7.10
2014,04,27,10,51,7.10
2014,04,27,10,52,7.10
2014,04,27,10,53,7.10
2014,04,27,10,54,7.10
2014,04,27,10,55,7.10
2014,04,27,10,56,7.10
2014,04,27,10,57,7.10
2014,04,27,10,58,7.10
2014,04,27,10,59,7.10
2014,04,27,11,00,7.10
2014,04,27,11,01,7.10
2014,04,27,11,02,7.20
2014,04,27,11,03,7.30
2014,04,27,11,04,7.40
2014,04,27,11,05,7.50
2014,04,27,11,06,7.60
2014,04,27,11,07,7.60
2014,04,27,11,08,7.60
2014,04,27,11,09,7.70
2014,04,27,11,10,7.70
2014,04,27,11,11,7.70
2014,04,27,11,12,7.80
2014,04,27,11,13,7.90
2014,04,27,11,14,7.90
2014,04,27,11,15,7.90
2014,04,27,11,16,7.90
2014,04,27,11,17,8.00
2014,04,27,11,18,8.10
2014,04,27,11,19,8.10
2014,04,27,11,20,8.10
2014,04,27,11,21,8.10
2014,04,27,11,22,8.10
2014,04,27,11,23,8.10
2014,04,27,11,24,8.10
2014,04,27,11,25,8.10
2014,04,27,11,26,8.00
2014,04,27,11,27,8.00
2014,04,27,11,28,8.00
2014,04,27,11,29,8.00
2014,04,27,11,30,8.00
2014,04,27,11,31,8.00
2014,04,27,11,32,8.00
2014,04,27,11,33,8.00
2014,04,27,11,34,8.10
2014,04,27,11,35,8.10
2014,04,27,11,36,8.20
2014,04,27,11,37,8.30
2014,04,27,11,38,8.30
2014,04,27,11,39,8.40
2014,04,27,11,40,8.50
2014,04,27,11,41,8.60
2014,04,27,11,42,8.70
2014,04,27,11,43,8.80
2014,04,27,11,44,8.90
2014,04,27,11,45,8.90
2014,04,27,11,46,9.00
2014,04,27,11,47,9.00
2014,04,27,11,48,9.00
2014,04,27,11,49,9.10
2014,04,27,11,50,9.10
2014,04,27,11,51,9.10
2014,04,27,11,52,9.20
2014,04,27,11,53,9.30
2014,04,27,11,54,9.30
2014,04,27,11,55,9.30
2014,04,27,11,56,9.30
2014,04,27,11,57,9.30
2014,04,27,11,58,9.30
2014,04,27,11,59,9.30
2014,04,27,12,00,9.30
2014,04,27,12,01,9.20
2014,04,27,12,02,9.20
2014,04,27,12,03,9.20
2014,04,27,12,04,9.20
2014,04,27,12,05,9.20
2014,04,27,12,06,9.20
2014,04,27,12,07,9.20
2014,04,27,12,08,9.20
2014,04,27,12,09,9.10
2014,04,27,12,10,9.10
2014,04,27,12,11,9.10
2014,04,27,12,12,9.00
2014,04,27,12,13,9.00
2014,04,27,12,14,8.90
2014,04,27,12,15,8.80
2014,04,27,12,16,8.70
2014,04,27,12,17,8.60
2014,04,27,12,18,8.60
2014,04,27,12,19,8.60
2014,04,27,12,20,8.50
2014,04,27,12,21,8.50
2014,04,27,12,22,8.40
2014,04,27,12,23,8.40
2014,04,27,12,24,8.30
2014,04,27,12,25,8.30
2014,04,27,12,26,8.30
2014,04,27,12,27,8.30
2014,04,27,12,28,8.20
2014,04,27,12,29,8.30
2014,04,27,12,30,8.30
2014,04,27,12,31,8.40
2014,04,27,12,32,8.40
2014,04,27,12,33,8.40
2014,04,27,12,34,8.40
2014,04,27,12,35,8.40
2014,04,27,12,36,8.50
2014,04,27,12,37,8.50
2014,04,27,12,38,8.50
2014,04,27,12,39,8.50
2014,04,27,12,40,8.50
2014,04,27,12,41,8.50
2014,04,27,12,42,8.40
2014,04,27,12,43,8.20
2014,04,27,12,44,8.10
2014,04,27,12,45,8.00
2014,04,27,12,46,7.80
2014,04,27,12,47,7.70
2014,04,27,12,48,7.60
2014,04,27,12,49,7.60
2014,04,27,12,50,7.50
2014,04,27,12,51,7.50
2014,04,27,12,52,7.40
2014,04,27,12,53,7.40
2014,04,27,12,54,7.40
2014,04,27,12,55,7.30
2014,04,27,12,56,7.30
2014,04,27,12,57,7.30
2014,04,27,12,58,7.30
2014,04,27,12,59,7.30
2014,04,27,13,00,7.20
2014,04,27,13,01,7.20
2014,04,27,13,02,7.20
2014,04,27,13,03,7.20
2014,04,27,13,04,7.20
2014,04,27,13,05,7.20
2014,04,27,13,06,7.20
2014,04,27,13,07,7.20
2014,04,27,13,08,7.20
2014,04,27,13,09,7.30
2014,04,27,13,10,7.40
2014,04,27,13,11,7.50
2014,04,27,13,12,7.60
2014,04,27,13,13,7.70
2014,04,27,13,14,7.80
2014,04,27,13,15,7.80
2014,04,27,13,16,7.90
2014,04,27,13,17,8.00
2014,04,27,13,18,8.00
2014,04,27,13,19,8.10
2014,04,27,13,20,8.20
2014,04,27,13,21,8.20
2014,04,27,13,22,8.30
2014,04,27,13,23,8.40
2014,04,27,13,24,8.50
2014,04,27,13,25,8.50
2014,04,27,13,26,8.50
2014,04,27,13,27,8.60
2014,04,27,13,28,8.60
2014,04,27,13,29,8.70
2014,04,27,13,30,8.80
2014,04,27,13,31,8.80
2014,04,27,13,32,8.80
2014,04,27,13,33,8.70
2014,04,27,13,34,8.70
2014,04,27,13,35,8.70
2014,04,27,13,36,8.70
2014,04,27,13,37,8.80
2014,04,27,13,38,8.80
2014,04,27,13,39,8.80
2014,04,27,13,40,8.90
2014,04,27,13,41,8.80
2014,04,27,13,42,8.80
2014,04,27,13,43,8.90
2014,04,27,13,44,8.90
2014,04,27,13,45,8.90
2014,04,27,13,46,9.00
2014,04,27,13,47,9.10
2014,04,27,13,48,9.10
2014,04,27,13,49,9.10
2014,04,27,13,50,9.10
2014,04,27,13,51,9.20
2014,04,27,13,52,9.20
2014,04,27,13,53,9.20
2014,04,27,13,54,9.20
2014,04,27,13,55,9.20
2014,04,27,13,56,9.30
2014,04,27,13,57,9.30
2014,04,27,13,58,9.30
2014,04,27,13,59,9.30
2014,04,27,14,00,9.30
2014,04,27,14,01,9.30
2014,04,27,14,02,9.30
2014,04,27,14,03,9.40
2014,04,27,14,04,9.50
2014,04,27,14,05,9.60
2014,04,27,14,06,9.60
2014,04,27,14,07,9.70
2014,04,27,14,08,9.70
2014,04,27,14,09,9.60
2014,04,27,14,10,9.60
2014,04,27,14,11,9.50
2014,04,27,14,12,9.50
2014,04,27,14,13,9.50
2014,04,27,14,14,9.40
2014,04,27,14,15,9.40
2014,04,27,14,16,9.30
2014,04,27,14,17,9.20
2014,04,27,14,18,9.10
2014,04,27,14,19,9.00
2014,04,27,14,20,8.90
2014,04,27,14,21,8.80
2014,04,27,14,22,8.80
2014,04,27,14,23,8.80
2014,04,27,14,24,8.70
2014,04,27,14,25,8.70
2014,04,27,14,26,8.60
2014,04,27,14,27,8.50
2014,04,27,14,28,8.40
2014,04,27,14,29,8.30
2014,04,27,14,30,8.30
2014,04,27,14,31,8.20
2014,04,27,14,32,8.10
2014,04,27,14,33,8.10
2014,04,27,14,34,8.10
2014,04,27,14,35,8.00
2014,04,27,14,36,8.00
2014,04,27,14,37,8.00
2014,04,27,14,38,7.90
2014,04,27,14,39,7.90
2014,04,27,14,40,7.90
2014,04,27,14,41,8.00
2014,04,27,14,42,8.00
2014,04,27,14,43,8.00
2014,04,27,14,44,8.00
2014,04,27,14,45,8.10
2014,04,27,14,46,8.10
2014,04,27,14,47,8.20
2014,04,27,14,48,8.30
2014,04,27,14,49,8.40
2014,04,27,14,50,8.50
2014,04,27,14,51,8.70
2014,04,27,14,52,8.80
2014,04,27,14,53,8.90
2014,04,27,14,54,8.90
2014,04,27,14,55,9.00
2014,04,27,14,56,8.90
2014,04,27,14,57,9.00
2014,04,27,14,58,9.10
2014,04,27,14,59,9.10
2014,04,27,15,00,9.10
2014,04,27,15,01,9.20
2014,04,27,15,02,9.20
2014,04,27,15,03,9.20
2014,04,27,15,04,9.20
2014,04,27,15,05,9.20
2014,04,27,15,06,9.30
2014,04,27,15,07,9.30
2014,04,27,15,08,9.30
2014,04,27,15,09,9.30
2014,04,27,15,10,9.40
2014,04,27,15,11,9.50
2014,04,27,15,12,9.60
2014,04,27,15,13,9.60
2014,04,27,15,14,9.60
2014,04,27,15,15,9.60
2014,04,27,15,16,9.60
2014,04,27,15,17,9.60
2014,04,27,15,18,9.60
2014,04,27,15,19,9.70
2014,04,27,15,20,9.70
2014,04,27,15,21,9.80
2014,04,27,15,22,9.80
2014,04,27,15,23,9.80
2014,04,27,15,24,9.70
2014,04,27,15,25,9.70
2014,04,27,15,26,9.60
2014,04,27,15,27,9.60
2014,04,27,15,28,9.50
2014,04,27,15,29,9.50
2014,04,27,15,30,9.40
2014,04,27,15,31,9.40
2014,04,27,15,32,9.30
2014,04,27,15,33,9.20
2014,04,27,15,34,9.00
2014,04,27,15,35,8.90
2014,04,27,15,36,8.90
2014,04,27,15,37,8.90
2014,04,27,15,38,8.90
2014,04,27,15,39,8.90
2014,04,27,15,40,9.00
2014,04,27,15,41,9.00
2014,04,27,15,42,9.20
2014,04,27,15,43,9.30
2014,04,27,15,44,9.50
2014,04,27,15,45,9.60
2014,04,27,15,46,9.60
2014,04,27,15,47,9.70
2014,04,27,15,48,9.60
2014,04,27,15,49,9.60
2014,04,27,15,50,9.70
2014,04,27,15,51,9.60
2014,04,27,15,52,9.60
2014,04,27,15,53,9.70
2014,04,27,15,54,9.60
2014,04,27,15,55,9.60
2014,04,27,15,56,9.60
2014,04,27,15,57,9.50
2014,04,27,15,58,9.50
2014,04,27,15,59,9.50
2014,04,27,16,00,9.50
2014,04,27,16,01,9.50
2014,04,27,16,02,9.40
2014,04,27,16,03,9.40
2014,04,27,16,04,9.40
2014,04,27,16,05,9.40
2014,04,27,16,06,9.40
2014,04,27,16,07,9.40
2014,04,27,16,08,9.30
2014,04,27,16,09,9.20
2014,04,27,16,10,9.10
2014,04,27,16,11,9.10
2014,04,27,16,12,9.00
2014,04,27,16,13,9.10
2014,04,27,16,14,9.10
2014,04,27,16,15,9.10
2014,04,27,16,16,9.20
2014,04,27,16,17,9.20
2014,04,27,16,18,9.20
2014,04,27,16,19,9.20
2014,04,27,16,20,9.10
2014,04,27,16,21,9.10
2014,04,27,16,22,9.10
2014,04,27,16,23,9.00
2014,04,27,16,24,8.90
2014,04,27,16,25,8.90
2014,04,27,16,26,8.90
2014,04,27,16,27,8.80
2014,04,27,16,28,8.80
2014,04,27,16,29,8.80
2014,04,27,16,30,8.80
2014,04,27,16,31,8.80
2014,04,27,16,32,8.80
2014,04,27,16,33,8.80
2014,04,27,16,34,8.70
2014,04,27,16,35,8.60
2014,04,27,16,36,8.60
2014,04,27,16,37,8.50
2014,04,27,16,38,8.40
2014,04,27,16,39,8.30
2014,04,27,16,40,8.30
2014,04,27,16,41,8.20
2014,04,27,16,42,8.20
2014,04,27,16,43,8.10
2014,04,27,16,44,8.10
2014,04,27,16,45,8.10
2014,04,27,16,46,8.10
2014,04,27,16,47,8.10
2014,04,27,16,48,8.10
2014,04,27,16,49,8.20
2014,04,27,16,50,8.30
2014,04,27,16,51,8.30
2014,04,27,16,52,8.40
2014,04,27,16,53,8.50
2014,04,27,16,54,8.60
2014,04,27,16,55,8.80
2014,04,27,16,56,8.80
2014,04,27,16,57,8.90
2014,04,27,16,58,9.00
2014,04,27,16,59,9.10
2014,04,27,17,00,9.20
2014,04,27,17,01,9.30
2014,04,27,17,02,9.30
2014,04,27,17,03,9.30
2014,04,27,17,04,9.40
2014,04,27,17,05,9.40
2014,04,27,17,06,9.50
2014,04,27,17,07,9.50
2014,04,27,17,08,9.60
2014,04,27,17,09,9.60
2014,04,27,17,10,9.70
2014,04,27,17,11,9.70
2014,04,27,17,12,9.70
2014,04,27,17,13,9.70
2014,04,27,17,14,9.70
2014,04,27,17,15,9.80
2014,04,27,17,16,9.80
2014,04,27,17,17,9.80
2014,04,27,17,18,9.80
2014,04,27,17,19,9.80
2014,04,27,17,20,9.90
2014,04,27,17,21,9.90
2014,04,27,17,22,9.90
2014,04,27,17,23,9.90
2014,04,27,17,24,9.90
2014,04,27,17,25,9.90
2014,04,27,17,26,9.80
2014,04,27,17,27,9.80
2014,04,27,17,28,9.80
2014,04,27,17,29,9.80
2014,04,27,17,30,9.80
2014,04,27,17,31,9.80
2014,04,27,17,32,9.90
2014,04,27,17,33,9.90
2014,04,27,17,34,10.00
2014,04,27,17,35,10.00
2014,04,27,17,36,10.20
2014,04,27,17,37,10.20
2014,04,27,17,38,10.20
2014,04,27,17,39,10.20
2014,04,27,17,40,10.20
2014,04,27,17,41,10.20
2014,04,27,17,42,10.20
2014,04,27,17,43,10.10
2014,04,27,17,44,10.10
2014,04,27,17,45,10.00
2014,04,27,17,46,10.00
2014,04,27,17,47,9.90
2014,04,27,17,48,10.00
2014,04,27,17,49,10.00
2014,04,27,17,50,10.00
2014,04,27,17,51,10.00
2014,04,27,17,52,10.00
2014,04,27,17,53,10.00
2014,04,27,17,54,10.00
2014,04,27,17,55,10.00
2014,04,27,17,56,9.90
2014,04,27,17,57,9.90
2014,04,27,17,58,9.80
2014,04,27,17,59,9.80
2014,04,27,18,00,9.80
2014,04,27,18,01,9.80
2014,04,27,18,02,9.70
2014,04,27,18,03,9.70
2014,04,27,18,04,9.70
2014,04,27,18,05,9.70